| time (UTC) | temp F | wind direction | speed MPH | gust MPH | rain 1hr in | rain 24hr in | rain mn in | humidity % | barometer mb |
| 20260508035359 | 57 | 17 | 0.0 | 0.0 | 0.00 | 0.00 | 0.00 | 81 | 1000.2 |
| 20260508034850 | 57 | 18 | 0.0 | 0.0 | 0.00 | 0.00 | 0.00 | 81 | 1000.2 |
| 20260508033858 | 58 | 217 | 0.0 | 1.0 | 0.00 | 0.00 | 0.00 | 80 | 1000.2 |
| 20260508032909 | 59 | 216 | 0.0 | 0.0 | 0.00 | 0.00 | 0.00 | 78 | 1000.2 |
| 20260508032352 | 59 | 216 | 0.0 | 2.0 | 0.00 | 0.00 | 0.00 | 76 | 1000.2 |
| 20260508031847 | 60 | 216 | 0.0 | 2.0 | 0.00 | 0.00 | 0.00 | 76 | 1000.2 |
| 20260508031341 | 60 | 216 | 0.0 | 2.0 | 0.00 | 0.00 | 0.00 | 75 | 1000.2 |
| 20260508030357 | 61 | 216 | 0.0 | 0.0 | 0.00 | 0.00 | 0.00 | 74 | 1000.2 |
| 20260508025856 | 61 | 216 | 0.0 | 2.0 | 0.00 | 0.00 | 0.00 | 72 | 1000.2 |
| 20260508025353 | 61 | 216 | 0.0 | 2.0 | 0.00 | 0.00 | 0.00 | 72 | 1000.2 |
| 20260508024849 | 62 | 216 | 0.0 | 2.0 | 0.00 | 0.00 | 0.00 | 73 | 1000.2 |
| 20260508024340 | 62 | 216 | 0.0 | 2.0 | 0.00 | 0.00 | 0.00 | 70 | 1000.2 |
| 20260508023342 | 62 | 216 | 0.0 | 0.0 | 0.00 | 0.00 | 0.00 | 70 | 1000.2 |
| 20260508022530 | 62 | 216 | 0.0 | 2.0 | 0.00 | 0.00 | 0.00 | 70 | 1000.2 |
| 20260508021840 | 62 | 216 | 0.0 | 2.0 | 0.00 | 0.00 | 0.00 | 70 | 1000.2 |
| 20260508021337 | 62 | 216 | 0.0 | 1.0 | 0.00 | 0.00 | 0.00 | 67 | 1000.2 |
| 20260508020344 | 62 | 216 | 0.0 | 2.0 | 0.00 | 0.00 | 0.00 | 66 | 1000.2 |
| 20260508015359 | 63 | 216 | 2.0 | 3.0 | 0.00 | 0.00 | 0.00 | 70 | 1000.2 |
| 20260508014353 | 62 | 216 | 0.0 | 3.0 | 0.00 | 0.00 | 0.00 | 67 | 1000.2 |
| 20260508013848 | 62 | 216 | 0.0 | 3.0 | 0.00 | 0.00 | 0.00 | 69 | 1000.2 |
| 20260508012857 | 62 | 216 | 0.0 | 0.0 | 0.00 | 0.00 | 0.00 | 70 | 1000.2 |
| 20260508012355 | 62 | 216 | 0.0 | 1.0 | 0.00 | 0.00 | 0.00 | 68 | 1000.2 |
| 20260508011844 | 62 | 216 | 0.0 | 2.0 | 0.00 | 0.00 | 0.00 | 69 | 1000.2 |
| 20260508010858 | 62 | 216 | 0.0 | 1.0 | 0.00 | 0.00 | 0.00 | 68 | 1000.2 |
| 20260508005846 | 62 | 216 | 0.0 | 2.0 | 0.00 | 0.00 | 0.00 | 70 | 1000.2 |
| 20260508004856 | 62 | 216 | 0.0 | 1.0 | 0.00 | 0.00 | 0.00 | 71 | 1000.2 |
| 20260508004351 | 62 | 216 | 0.0 | 0.0 | 0.00 | 0.00 | 0.00 | 69 | 1000.2 |
| 20260508003850 | 62 | 216 | 0.0 | 0.0 | 0.00 | 0.00 | 0.00 | 68 | 1000.2 |
| 20260508002854 | 62 | 216 | 0.0 | 2.0 | 0.00 | 0.00 | 0.00 | 69 | 1000.2 |
| 20260508002345 | 62 | 216 | 0.0 | 0.0 | 0.00 | 0.00 | 0.00 | 68 | 1000.2 |
| 20260508001843 | 62 | 216 | 0.0 | 1.0 | 0.00 | 0.00 | 0.00 | 69 | 1000.2 |
| 20260508000856 | 62 | 216 | 0.0 | 3.0 | 0.00 | 0.00 | 0.00 | 71 | 1000.2 |
| 20260507235853 | 62 | 229 | 1.0 | 3.0 | 0.00 | 0.00 | 0.00 | 72 | 1000.2 |
| 20260507234857 | 62 | 241 | 1.0 | 3.0 | 0.00 | 0.00 | 0.00 | 72 | 1000.2 |
| 20260507234352 | 62 | 241 | 1.0 | 3.0 | 0.00 | 0.00 | 0.00 | 71 | 1000.2 |
| 20260507233841 | 61 | 242 | 0.0 | 2.0 | 0.00 | 0.00 | 0.00 | 70 | 1000.2 |
| 20260507232857 | 62 | 242 | 1.0 | 2.0 | 0.00 | 0.00 | 0.00 | 70 | 1000.2 |
| 20260507232353 | 62 | 243 | 0.0 | 2.0 | 0.00 | 0.00 | 0.00 | 69 | 1000.2 |
| 20260507231845 | 61 | 218 | 0.0 | 2.0 | 0.00 | 0.00 | 0.00 | 71 | 1000.2 |
| 20260507230856 | 61 | 218 | 0.0 | 2.0 | 0.00 | 0.00 | 0.00 | 71 | 1000.2 |
| 20260507225857 | 60 | 218 | 0.0 | 2.0 | 0.00 | 0.00 | 0.00 | 73 | 1000.2 |
| 20260507225353 | 60 | 218 | 0.0 | 3.0 | 0.00 | 0.00 | 0.00 | 72 | 1000.2 |
| 20260507224848 | 60 | 218 | 0.0 | 4.0 | 0.00 | 0.00 | 0.00 | 72 | 1000.2 |
| 20260507224343 | 60 | 256 | 0.0 | 4.0 | 0.00 | 0.00 | 0.00 | 72 | 1000.2 |
| 20260507223834 | 60 | 257 | 2.0 | 4.0 | 0.00 | 0.00 | 0.00 | 72 | 1000.2 |
| 20260507222859 | 60 | 192 | 2.0 | 5.0 | 0.00 | 0.00 | 0.00 | 73 | 1000.2 |
| 20260507222338 | 60 | 192 | 2.0 | 4.0 | 0.00 | 0.00 | 0.00 | 74 | 1000.2 |
| 20260507221359 | 60 | 192 | 2.0 | 4.0 | 0.00 | 0.00 | 0.00 | 75 | 1000.2 |
| 20260507220857 | 60 | 192 | 1.0 | 3.0 | 0.00 | 0.00 | 0.00 | 74 | 1000.2 |
| 20260507215853 | 60 | 192 | 1.0 | 4.0 | 0.00 | 0.00 | 0.00 | 73 | 1000.2 |
| 20260507215339 | 60 | 227 | 2.0 | 3.0 | 0.00 | 0.00 | 0.00 | 74 | 1000.2 |
| 20260507214838 | 60 | 228 | 2.0 | 3.0 | 0.00 | 0.00 | 0.00 | 72 | 1000.2 |
| 20260507213844 | 61 | 256 | 1.0 | 4.0 | 0.00 | 0.00 | 0.00 | 73 | 1000.2 |
| 20260507212858 | 61 | 251 | 1.0 | 3.0 | 0.00 | 0.00 | 0.00 | 72 | 1000.2 |
| 20260507212349 | 59 | 250 | 0.0 | 3.0 | 0.00 | 0.00 | 0.00 | 73 | 1000.2 |
| 20260507211403 | 59 | 219 | 2.0 | 3.0 | 0.00 | 0.00 | 0.00 | 74 | 1000.2 |
| 20260507210353 | 59 | 167 | 0.0 | 3.0 | 0.00 | 0.00 | 0.00 | 74 | 1000.2 |
| 20260507205350 | 59 | 167 | 0.0 | 3.0 | 0.00 | 0.00 | 0.00 | 74 | 1000.2 |
| 20260507204351 | 58 | 167 | 1.0 | 2.0 | 0.00 | 0.00 | 0.00 | 73 | 1000.2 |
| 20260507203356 | 58 | 167 | 0.0 | 1.0 | 0.00 | 0.00 | 0.00 | 74 | 1000.2 |
| 20260507202848 | 58 | 167 | 0.0 | 2.0 | 0.00 | 0.00 | 0.00 | 76 | 1000.2 |
| 20260507202338 | 58 | 167 | 1.0 | 3.0 | 0.00 | 0.00 | 0.00 | 76 | 1000.2 |
| 20260507201354 | 58 | 167 | 2.0 | 3.0 | 0.00 | 0.00 | 0.00 | 77 | 1000.2 |
| 20260507200840 | 58 | 167 | 3.0 | 3.0 | 0.00 | 0.00 | 0.00 | 76 | 1000.2 |
| 20260507195859 | 58 | 167 | 0.0 | 2.0 | 0.00 | 0.00 | 0.00 | 76 | 1000.2 |
| 20260507195333 | 57 | 167 | 0.0 | 0.0 | 0.00 | 0.00 | 0.00 | 74 | 1000.2 |
| 20260507194355 | 57 | 167 | 0.0 | 0.0 | 0.00 | 0.00 | 0.00 | 77 | 1000.2 |
| 20260507193849 | 57 | 167 | 0.0 | 0.0 | 0.00 | 0.00 | 0.00 | 77 | 1000.2 |
| 20260507192852 | 57 | 167 | 0.0 | 2.0 | 0.00 | 0.00 | 0.00 | 77 | 1000.2 |
| 20260507192344 | 57 | 167 | 0.0 | 2.0 | 0.00 | 0.00 | 0.00 | 77 | 1000.2 |
| 20260507191353 | 57 | 167 | 1.0 | 3.0 | 0.00 | 0.00 | 0.00 | 79 | 1000.2 |
| 20260507190644 | 57 | 165 | 2.0 | 3.0 | 0.00 | 0.00 | 0.00 | 75 | 1000.2 |
| 20260507182850 | 56 | 163 | 1.0 | 7.0 | 0.00 | 0.00 | 0.00 | 79 | 1000.2 |
| 20260507182349 | 56 | 163 | 2.0 | 7.0 | 0.00 | 0.00 | 0.00 | 80 | 1000.2 |
| 20260507181355 | 56 | 144 | 1.0 | 3.0 | 0.00 | 0.00 | 0.00 | 79 | 1000.2 |
| 20260507180847 | 56 | 143 | 0.0 | 0.0 | 0.00 | 0.00 | 0.00 | 77 | 1000.2 |
| 20260507175845 | 56 | 143 | 0.0 | 2.0 | 0.00 | 0.00 | 0.00 | 77 | 1000.2 |
| 20260507174846 | 55 | 143 | 1.0 | 3.0 | 0.00 | 0.00 | 0.00 | 79 | 1000.2 |
| 20260507174341 | 55 | 143 | 0.0 | 4.0 | 0.00 | 0.00 | 0.00 | 79 | 1000.2 |
| 20260507173339 | 55 | 143 | 1.0 | 4.0 | 0.00 | 0.00 | 0.00 | 80 | 1000.2 |
| 20260507172353 | 55 | 142 | 2.0 | 7.0 | 0.00 | 0.00 | 0.00 | 80 | 1000.2 |
| 20260507171348 | 55 | 125 | 3.0 | 6.0 | 0.00 | 0.00 | 0.00 | 82 | 1000.2 |
| 20260507170831 | 55 | 143 | 1.0 | 5.0 | 0.00 | 0.00 | 0.00 | 81 | 1000.2 |
| 20260507165849 | 55 | 142 | 1.0 | 7.0 | 0.00 | 0.00 | 0.00 | 82 | 1000.2 |
| 20260507164337 | 54 | 153 | 2.0 | 5.0 | 0.00 | 0.00 | 0.00 | 85 | 1000.2 |
| 20260507163358 | 54 | 155 | 1.0 | 5.0 | 0.00 | 0.00 | 0.00 | 85 | 1000.2 |
| 20260507162837 | 54 | 155 | 1.0 | 5.0 | 0.00 | 0.00 | 0.00 | 85 | 1000.2 |
| 20260507161847 | 54 | 155 | 2.0 | 4.0 | 0.00 | 0.00 | 0.00 | 86 | 1000.2 |
| 20260507160901 | 53 | 178 | 3.0 | 4.0 | 0.00 | 0.00 | 0.00 | 87 | 1000.2 |
| 20260507155851 | 53 | 193 | 1.0 | 4.0 | 0.00 | 0.00 | 0.00 | 88 | 1000.2 |
| 20260507155347 | 53 | 193 | 2.0 | 4.0 | 0.00 | 0.00 | 0.00 | 88 | 1000.2 |
| 20260507154845 | 53 | 192 | 2.0 | 3.0 | 0.00 | 0.00 | 0.00 | 88 | 1000.2 |
| 20260507153854 | 53 | 193 | 0.0 | 3.0 | 0.00 | 0.00 | 0.00 | 87 | 1000.2 |
| 20260507153349 | 53 | 193 | 1.0 | 3.0 | 0.00 | 0.00 | 0.00 | 88 | 1000.2 |
| 20260507152836 | 53 | 157 | 0.0 | 0.0 | 0.00 | 0.00 | 0.00 | 87 | 1000.2 |
| 20260507151856 | 52 | 57 | 0.0 | 0.0 | 0.00 | 0.00 | 0.00 | 88 | 1000.2 |
| 20260507151348 | 52 | 49 | 0.0 | 0.0 | 0.00 | 0.00 | 0.00 | 88 | 1000.2 |
| 20260507150847 | 52 | 46 | 0.0 | 0.0 | 0.00 | 0.00 | 0.00 | 88 | 1000.2 |
| 20260507150336 | 52 | 46 | 0.0 | 0.0 | 0.00 | 0.00 | 0.00 | 88 | 1000.2 |
| 20260507145342 | 52 | 46 | 0.0 | 0.0 | 0.00 | 0.00 | 0.00 | 89 | 1000.2 |
| 20260507144355 | 52 | 9 | 0.0 | 0.0 | 0.00 | 0.00 | 0.00 | 90 | 1000.2 |
| 20260507142355 | 51 | 9 | 0.0 | 0.0 | 0.00 | 0.00 | 0.00 | 92 | 1000.2 |
| 20260507141347 | 51 | 9 | 1.0 | 4.0 | 0.00 | 0.00 | 0.00 | 92 | 1000.2 |
| 20260507140347 | 50 | 9 | 1.0 | 3.0 | 0.00 | 0.00 | 0.00 | 92 | 1000.2 |
| 20260507135343 | 50 | 17 | 1.0 | 2.0 | 0.00 | 0.00 | 0.00 | 92 | 1000.2 |
| 20260507134337 | 50 | 17 | 1.0 | 2.0 | 0.00 | 0.00 | 0.00 | 92 | 1000.2 |
| 20260507133344 | 50 | 17 | 0.0 | 1.0 | 0.00 | 0.00 | 0.00 | 92 | 1000.2 |
| 20260507132356 | 50 | 17 | 0.0 | 2.0 | 0.00 | 0.00 | 0.00 | 92 | 1000.2 |
| 20260507131835 | 50 | 17 | 0.0 | 2.0 | 0.00 | 0.00 | 0.00 | 92 | 1000.2 |
| 20260507130853 | 50 | 17 | 0.0 | 3.0 | 0.00 | 0.00 | 0.00 | 93 | 1000.2 |
| 20260507130348 | 50 | 17 | 1.0 | 3.0 | 0.00 | 0.00 | 0.00 | 92 | 1000.2 |
| 20260507125354 | 50 | 17 | 0.0 | 0.0 | 0.00 | 0.00 | 0.00 | 92 | 1000.2 |
| 20260507124852 | 50 | 17 | 0.0 | 0.0 | 0.00 | 0.00 | 0.00 | 92 | 1000.2 |
| 20260507124344 | 50 | 17 | 0.0 | 0.0 | 0.00 | 0.00 | 0.00 | 92 | 1000.2 |
| 20260507123842 | 50 | 17 | 0.0 | 0.0 | 0.00 | 0.00 | 0.00 | 93 | 1000.2 |
| 20260507122902 | 50 | 17 | 0.0 | 0.0 | 0.00 | 0.00 | 0.00 | 93 | 1000.2 |
| 20260507122356 | 50 | 17 | 0.0 | 0.0 | 0.00 | 0.00 | 0.00 | 92 | 1000.2 |
| 20260507121855 | 50 | 17 | 0.0 | 2.0 | 0.00 | 0.00 | 0.00 | 93 | 1000.2 |
| 20260507121341 | 50 | 17 | 0.0 | 3.0 | 0.00 | 0.00 | 0.00 | 92 | 1000.2 |
| 20260507120354 | 50 | 10 | 1.0 | 3.0 | 0.00 | 0.00 | 0.00 | 92 | 1000.2 |
| 20260507115841 | 50 | 10 | 0.0 | 2.0 | 0.00 | 0.00 | 0.00 | 91 | 1000.2 |
| 20260507114858 | 51 | 81 | 1.0 | 2.0 | 0.00 | 0.00 | 0.00 | 90 | 1000.2 |
| 20260507114348 | 51 | 81 | 1.0 | 2.0 | 0.00 | 0.00 | 0.00 | 89 | 1000.2 |
| 20260507113356 | 52 | 81 | 0.0 | 3.0 | 0.00 | 0.00 | 0.00 | 88 | 1000.2 |
| 20260507112843 | 52 | 81 | 0.0 | 3.0 | 0.00 | 0.00 | 0.00 | 87 | 1000.2 |
| 20260507111850 | 53 | 79 | 0.0 | 4.0 | 0.00 | 0.00 | 0.00 | 88 | 1000.2 |
| 20260507110856 | 53 | 71 | 1.0 | 4.0 | 0.00 | 0.00 | 0.00 | 87 | 1000.2 |
| 20260507110348 | 53 | 115 | 1.0 | 4.0 | 0.00 | 0.00 | 0.00 | 88 | 1000.2 |
| 20260507105845 | 53 | 115 | 2.0 | 6.0 | 0.00 | 0.00 | 0.00 | 88 | 1000.2 |
| 20260507104843 | 53 | 99 | 1.0 | 4.0 | 0.00 | 0.00 | 0.00 | 88 | 1000.2 |
| 20260507103854 | 53 | 111 | 3.0 | 5.0 | 0.00 | 0.00 | 0.00 | 88 | 1000.2 |
| 20260507103352 | 53 | 119 | 3.0 | 7.0 | 0.00 | 0.00 | 0.00 | 88 | 1000.2 |
| 20260507102848 | 53 | 133 | 4.0 | 7.0 | 0.00 | 0.00 | 0.00 | 88 | 1000.2 |
| 20260507102341 | 53 | 135 | 4.0 | 8.0 | 0.00 | 0.00 | 0.00 | 88 | 1000.2 |
| 20260507101343 | 54 | 138 | 5.0 | 8.0 | 0.00 | 0.00 | 0.00 | 89 | 1000.2 |
| 20260507100343 | 54 | 134 | 6.0 | 9.0 | 0.00 | 0.00 | 0.00 | 89 | 1000.2 |
| 20260507095344 | 54 | 146 | 6.0 | 9.0 | 0.00 | 0.00 | 0.00 | 89 | 1000.2 |
| 20260507094348 | 54 | 163 | 5.0 | 7.0 | 0.00 | 0.00 | 0.00 | 89 | 1000.2 |
| 20260507093847 | 54 | 175 | 5.0 | 7.0 | 0.00 | 0.00 | 0.00 | 89 | 1000.2 |
| 20260507093336 | 54 | 201 | 5.0 | 8.0 | 0.00 | 0.00 | 0.00 | 89 | 1000.2 |
| 20260507092401 | 54 | 182 | 7.0 | 10.0 | 0.00 | 0.00 | 0.00 | 89 | 1000.2 |
| 20260507091850 | 54 | 177 | 6.0 | 8.0 | 0.00 | 0.00 | 0.00 | 89 | 1000.2 |
| 20260507091344 | 54 | 231 | 4.0 | 7.0 | 0.00 | 0.00 | 0.00 | 89 | 1000.2 |
| 20260507090839 | 54 | 229 | 4.0 | 7.0 | 0.00 | 0.00 | 0.00 | 89 | 1000.2 |
| 20260507085856 | 54 | 226 | 5.0 | 8.0 | 0.00 | 0.00 | 0.00 | 89 | 1000.2 |
| 20260507084851 | 54 | 213 | 5.0 | 8.0 | 0.00 | 0.00 | 0.00 | 89 | 1000.2 |
| 20260507084348 | 54 | 221 | 6.0 | 9.0 | 0.00 | 0.00 | 0.00 | 89 | 1000.2 |
| 20260507083845 | 54 | 227 | 6.0 | 9.0 | 0.00 | 0.00 | 0.00 | 89 | 1000.2 |
| 20260507082854 | 54 | 219 | 4.0 | 8.0 | 0.00 | 0.00 | 0.00 | 89 | 1000.2 |
| 20260507082347 | 54 | 167 | 6.0 | 9.0 | 0.00 | 0.00 | 0.00 | 90 | 1000.2 |
| 20260507081847 | 54 | 196 | 5.0 | 8.0 | 0.00 | 0.00 | 0.00 | 90 | 1000.2 |
| 20260507080855 | 55 | 175 | 6.0 | 9.0 | 0.00 | 0.00 | 0.00 | 90 | 1000.2 |
| 20260507080334 | 55 | 155 | 7.0 | 9.0 | 0.00 | 0.00 | 0.00 | 90 | 1000.2 |
| 20260507075401 | 55 | 155 | 5.0 | 10.0 | 0.00 | 0.00 | 0.00 | 91 | 1000.2 |
| 20260507074348 | 55 | 150 | 8.0 | 10.0 | 0.00 | 0.00 | 0.00 | 91 | 1000.2 |
| 20260507073355 | 55 | 159 | 7.0 | 11.0 | 0.00 | 0.00 | 0.00 | 90 | 1000.2 |
| 20260507072847 | 55 | 137 | 7.0 | 9.0 | 0.00 | 0.00 | 0.00 | 90 | 1000.2 |
| 20260507071847 | 55 | 161 | 6.0 | 10.0 | 0.00 | 0.00 | 0.00 | 90 | 1000.2 |
| 20260507071343 | 55 | 112 | 5.0 | 7.0 | 0.00 | 0.00 | 0.00 | 90 | 1000.2 |
| 20260507070841 | 55 | 117 | 3.0 | 8.0 | 0.00 | 0.00 | 0.00 | 90 | 1000.2 |
| 20260507065908 | 55 | 141 | 7.0 | 10.0 | 0.00 | 0.00 | 0.00 | 90 | 1000.2 |
| 20260507064843 | 55 | 140 | 8.0 | 10.0 | 0.00 | 0.00 | 0.00 | 90 | 1000.2 |
| 20260507064339 | 55 | 122 | 7.0 | 10.0 | 0.00 | 0.00 | 0.00 | 89 | 1000.2 |
| 20260507063353 | 55 | 141 | 5.0 | 10.0 | 0.00 | 0.00 | 0.00 | 89 | 1000.2 |
| 20260507062846 | 55 | 144 | 5.0 | 11.0 | 0.00 | 0.00 | 0.00 | 89 | 1000.2 |
| 20260507061857 | 55 | 146 | 6.0 | 10.0 | 0.00 | 0.00 | 0.00 | 89 | 1000.2 |
| 20260507060853 | 56 | 133 | 7.0 | 9.0 | 0.00 | 0.00 | 0.00 | 89 | 1000.2 |
| 20260507060347 | 56 | 155 | 6.0 | 9.0 | 0.00 | 0.00 | 0.00 | 88 | 1000.2 |
| 20260507055842 | 56 | 147 | 5.0 | 9.0 | 0.00 | 0.00 | 0.00 | 88 | 1000.2 |
| 20260507055341 | 56 | 131 | 5.0 | 9.0 | 0.00 | 0.00 | 0.00 | 88 | 1000.2 |
| 20260507054356 | 56 | 117 | 4.0 | 8.0 | 0.00 | 0.00 | 0.00 | 87 | 1000.2 |
| 20260507053354 | 56 | 133 | 3.0 | 7.0 | 0.00 | 0.00 | 0.00 | 87 | 1000.2 |
| 20260507052847 | 56 | 122 | 3.0 | 7.0 | 0.00 | 0.00 | 0.00 | 87 | 1000.2 |
| 20260507051858 | 56 | 143 | 3.0 | 5.0 | 0.00 | 0.00 | 0.00 | 86 | 1000.2 |
| 20260507050855 | 56 | 144 | 2.0 | 8.0 | 0.00 | 0.00 | 0.00 | 86 | 1000.2 |
| 20260507050338 | 56 | 124 | 3.0 | 9.0 | 0.00 | 0.00 | 0.00 | 86 | 1000.2 |
| 20260507045356 | 56 | 127 | 3.0 | 7.0 | 0.00 | 0.00 | 0.00 | 85 | 1000.2 |
| 20260507044352 | 57 | 111 | 1.0 | 8.0 | 0.00 | 0.00 | 0.00 | 85 | 1000.2 |
| 20260507043847 | 57 | 113 | 4.0 | 9.0 | 0.00 | 0.00 | 0.00 | 84 | 1000.2 |
| 20260507042845 | 57 | 134 | 4.0 | 9.0 | 0.00 | 0.00 | 0.00 | 84 | 1000.2 |
| 20260507041858 | 57 | 154 | 5.0 | 9.0 | 0.00 | 0.00 | 0.00 | 84 | 1000.2 |
| 20260507040852 | 57 | 157 | 6.0 | 8.0 | 0.00 | 0.00 | 0.00 | 87 | 1000.2 |